• In Belarus
  • List of Countries
  • For 7 days
  • Water Temperature
  • Satellite Maps
  • Weather Map
  • Weather Widgets
  • user-avatar
    Login

    Hourly Weather Parakou

    Today, 20 March, Wednesday

    Time Temperature Precipitation Wind Pressure Humidity
    00:00 +35°C° 0 mm 3 mps 725 mmHg 40%
    01:00 +34°C° 0 mm 3 mps 725 mmHg 46%
    02:00 +33°C° 0 mm 3 mps 725 mmHg 52%
    03:00 +32°C° 0 mm 4 mps 725 mmHg 58%
    04:00 +31°C° 0 mm 3 mps 725 mmHg 61%
    05:00 +30°C° 0 mm 3 mps 725 mmHg 63%
    06:00 +30°C° 0 mm 2 mps 725 mmHg 66%
    07:00 +31°C° 0 mm 3 mps 726 mmHg 60%
    08:00 +34°C° 0 mm 3 mps 726 mmHg 54%
    09:00 +35°C° 0 mm 3 mps 726 mmHg 49%
    10:00 +38°C° 0 mm 2 mps 726 mmHg 41%
    11:00 +41°C° 0 mm 2 mps 726 mmHg 33%
    12:00 +42°C° 0 mm 2 mps 726 mmHg 29%
    13:00 +41°C° 0 mm 1 mps 725 mmHg 28%
    14:00 +41°C° 0 mm 1 mps 724 mmHg 27%
    15:00 +38°C° 0 mm 0 mps 724 mmHg 25%
    16:00 +40°C° 0 mm 1 mps 724 mmHg 26%
    17:00 +40°C° 0 mm 1 mps 724 mmHg 27%
    18:00 +39°C° 0 mm 1 mps 724 mmHg 28%
    19:00 +37°C° 0 mm 1 mps 724 mmHg 31%
    20:00 +37°C° 0 mm 2 mps 725 mmHg 34%
    21:00 +36°C° 0 mm 2 mps 725 mmHg 37%
    22:00 +35°C° 0.1 mm 3 mps 725 mmHg 42%
    23:00 +34°C° 0.1 mm 4 mps 725 mmHg 48%

    Tomorrow, 21 March, Thursday

    Time Temperature Precipitation Wind Pressure Humidity
    00:00 +33°C° 0.1 mm 5 mps 725 mmHg 54%
    01:00 +32°C° 0 mm 4 mps 725 mmHg 58%
    02:00 +30°C° 0 mm 4 mps 724 mmHg 62%
    03:00 +30°C° 0 mm 3 mps 724 mmHg 67%
    04:00 +29°C° 0 mm 3 mps 724 mmHg 68%
    05:00 +29°C° 0 mm 3 mps 725 mmHg 70%
    06:00 +29°C° 0 mm 3 mps 725 mmHg 72%
    07:00 +31°C° 0 mm 3 mps 726 mmHg 65%
    08:00 +33°C° 0 mm 3 mps 726 mmHg 59%
    09:00 +35°C° 0 mm 3 mps 727 mmHg 52%
    10:00 +37°C° 0 mm 3 mps 727 mmHg 44%
    11:00 +39°C° 0 mm 3 mps 726 mmHg 37%
    12:00 +41°C° 0 mm 2 mps 726 mmHg 29%
    13:00 +41°C° 0 mm 2 mps 725 mmHg 29%
    14:00 +41°C° 0 mm 2 mps 724 mmHg 29%
    15:00 +40°C° 0 mm 2 mps 723 mmHg 28%
    16:00 +39°C° 0.1 mm 2 mps 723 mmHg 30%
    17:00 +37°C° 0.1 mm 1 mps 723 mmHg 32%
    18:00 +36°C° 0.1 mm 1 mps 724 mmHg 34%
    19:00 +35°C° 0 mm 1 mps 724 mmHg 37%
    20:00 +34°C° 0 mm 1 mps 724 mmHg 40%
    21:00 +33°C° 0 mm 1 mps 724 mmHg 43%
    22:00 +34°C° 0 mm 2 mps 725 mmHg 46%
    23:00 +32°C° 0 mm 2 mps 725 mmHg 49%

    Day after tomorrow, 22 March, Friday

    Time Temperature Precipitation Wind Pressure Humidity
    00:00 +33°C° 0 mm 3 mps 725 mmHg 52%
    01:00 +31°C° 0 mm 3 mps 725 mmHg 58%
    02:00 +30°C° 0 mm 3 mps 725 mmHg 63%
    03:00 +29°C° 0 mm 4 mps 725 mmHg 69%
    04:00 +29°C° 0 mm 3 mps 725 mmHg 68%
    05:00 +29°C° 0 mm 2 mps 725 mmHg 68%
    06:00 +29°C° 0 mm 1 mps 726 mmHg 67%
    07:00 +31°C° 0 mm 1 mps 726 mmHg 60%
    08:00 +34°C° 0 mm 2 mps 727 mmHg 53%
    09:00 +35°C° 0 mm 2 mps 727 mmHg 46%
    10:00 +38°C° 0 mm 2 mps 727 mmHg 38%
    11:00 +40°C° 0 mm 2 mps 727 mmHg 30%
    12:00 +43°C° 0 mm 2 mps 726 mmHg 22%
    13:00 +44°C° 0 mm 1 mps 725 mmHg 20%
    14:00 +45°C° 0 mm 1 mps 725 mmHg 17%
    15:00 +43°C° 0 mm 0 mps 724 mmHg 14%
    16:00 +41°C° 0 mm 0 mps 724 mmHg 16%
    17:00 +39°C° 0 mm 0 mps 724 mmHg 18%
    18:00 +37°C° 0 mm 0 mps 724 mmHg 19%
    19:00 +39°C° 0 mm 1 mps 724 mmHg 22%
    20:00 +39°C° 0 mm 1 mps 725 mmHg 24%
    21:00 +38°C° 0 mm 2 mps 725 mmHg 26%
    22:00 +37°C° 0 mm 2 mps 725 mmHg 32%
    23:00 +36°C° 0 mm 2 mps 726 mmHg 38%

    23 March, Saturday

    Time Temperature Precipitation Wind Pressure Humidity
    00:00 +36°C° 0 mm 3 mps 726 mmHg 44%
    01:00 +35°C° 0 mm 3 mps 725 mmHg 49%
    02:00 +33°C° 0 mm 3 mps 725 mmHg 53%
    03:00 +31°C° 0 mm 3 mps 724 mmHg 58%
    04:00 +31°C° 0 mm 3 mps 725 mmHg 62%
    05:00 +30°C° 0 mm 3 mps 725 mmHg 66%
    06:00 +29°C° 0 mm 3 mps 726 mmHg 70%
    07:00 +31°C° 0 mm 3 mps 726 mmHg 64%
    08:00 +33°C° 0 mm 3 mps 727 mmHg 57%
    09:00 +35°C° 0 mm 3 mps 728 mmHg 51%
    10:00 +38°C° 0 mm 2 mps 727 mmHg 41%
    11:00 +41°C° 0 mm 2 mps 727 mmHg 32%
    12:00 +44°C° 0 mm 1 mps 726 mmHg 22%
    13:00 +44°C° 0 mm 1 mps 725 mmHg 20%
    14:00 +42°C° 0 mm 0 mps 724 mmHg 18%
    15:00 +42°C° 0 mm 0 mps 723 mmHg 16%
    16:00 +44°C° 0 mm 1 mps 724 mmHg 19%
    17:00 +42°C° 0 mm 2 mps 724 mmHg 21%
    18:00 +40°C° 0 mm 2 mps 724 mmHg 23%
    19:00 +39°C° 0 mm 3 mps 724 mmHg 28%
    20:00 +38°C° 0 mm 3 mps 725 mmHg 33%
    21:00 +37°C° 0 mm 4 mps 726 mmHg 38%
    22:00 +35°C° 0 mm 4 mps 726 mmHg 47%
    23:00 +34°C° 0 mm 4 mps 726 mmHg 55%

    24 March, Sunday

    Time Temperature Precipitation Wind Pressure Humidity
    00:00 +32°C° 0 mm 4 mps 725 mmHg 64%
    01:00 +32°C° 0 mm 4 mps 725 mmHg 66%
    02:00 +30°C° 0 mm 4 mps 725 mmHg 69%
    03:00 +30°C° 0 mm 4 mps 725 mmHg 71%
    04:00 +29°C° 0 mm 3 mps 725 mmHg 72%
    05:00 +29°C° 0 mm 3 mps 725 mmHg 74%
    06:00 +29°C° 0 mm 3 mps 726 mmHg 75%
    07:00 +30°C° 0 mm 3 mps 726 mmHg 68%
    08:00 +33°C° 0 mm 3 mps 727 mmHg 61%
    09:00 +35°C° 0 mm 3 mps 727 mmHg 54%
    10:00 +37°C° 0 mm 2 mps 727 mmHg 45%
    11:00 +40°C° 0 mm 2 mps 727 mmHg 36%
    12:00 +42°C° 0 mm 1 mps 726 mmHg 27%
    13:00 +42°C° 0 mm 1 mps 725 mmHg 24%
    14:00 +43°C° 0 mm 1 mps 725 mmHg 22%
    15:00 +40°C° 0 mm 0 mps 724 mmHg 20%
    16:00 +38°C° 0 mm 0 mps 724 mmHg 21%
    17:00 +37°C° 0 mm 0 mps 724 mmHg 22%
    18:00 +36°C° 0 mm 0 mps 724 mmHg 23%
    19:00 +37°C° 0 mm 1 mps 724 mmHg 26%
    20:00 +36°C° 0 mm 1 mps 725 mmHg 28%
    21:00 +36°C° 0 mm 2 mps 725 mmHg 30%
    22:00 +35°C° 0 mm 3 mps 725 mmHg 39%
    23:00 +34°C° 0 mm 4 mps 725 mmHg 49%

    25 March, Monday

    Time Temperature Precipitation Wind Pressure Humidity
    00:00 +33°C° 0 mm 5 mps 725 mmHg 58%
    01:00 +32°C° 0 mm 4 mps 725 mmHg 61%
    02:00 +31°C° 0 mm 3 mps 724 mmHg 64%
    03:00 +30°C° 0 mm 3 mps 724 mmHg 67%
    04:00 +29°C° 0 mm 3 mps 724 mmHg 69%
    05:00 +29°C° 0 mm 3 mps 725 mmHg 71%
    06:00 +29°C° 0 mm 3 mps 725 mmHg 73%
    07:00 +30°C° 0 mm 3 mps 726 mmHg 67%
    08:00 +33°C° 0 mm 3 mps 726 mmHg 60%
    09:00 +35°C° 0 mm 3 mps 727 mmHg 53%
    10:00 +37°C° 0 mm 2 mps 726 mmHg 45%
    11:00 +40°C° 0 mm 2 mps 726 mmHg 37%
    12:00 +42°C° 0 mm 2 mps 726 mmHg 28%
    13:00 +42°C° 0 mm 1 mps 725 mmHg 28%
    14:00 +41°C° 0 mm 1 mps 724 mmHg 27%
    15:00 +41°C° 0 mm 1 mps 723 mmHg 27%
    16:00 +40°C° 0 mm 1 mps 724 mmHg 28%
    17:00 +39°C° 0 mm 2 mps 724 mmHg 30%
    18:00 +39°C° 0 mm 2 mps 724 mmHg 32%
    19:00 +38°C° 0.1 mm 2 mps 725 mmHg 35%
    20:00 +37°C° 0.1 mm 3 mps 725 mmHg 38%
    21:00 +36°C° 0.1 mm 3 mps 726 mmHg 41%
    22:00 +35°C° 0.1 mm 3 mps 726 mmHg 47%
    23:00 +34°C° 0.1 mm 4 mps 725 mmHg 53%
    Show more